Location: Unspecified
(0.0000°N, 0.0000°E)
Time: 11:51:26
(UTC+00:00)

Hubble Space Telescope - Pass Details

Date: 23 May 2017
Orbit: 538 x 542 km, 28.5° (Epoch: 22 August)

Event Time Altitude Azimuth Distance (km) Brightness Sun altitude
Rises 20:33:32 0° 269° (W) 2,676 5.1 -36.2°
Reaches altitude 10° 20:36:24 10° 289° (WNW) 1,784 4.2 -36.9°
Enters shadow 20:36:37 11° 291° (WNW) 1,728 4.1 -36.9°
